Regional Weather Roundup
Issued by NWS

Home | Current Version | Previous Version | Graphics & Text | Print | Product List | Glossary On
Versions: 1 2 3 4 5 6 7 8 9 10 11 12 13 14 15 16 17 18 19 20 21 22 23 24 25 26 27 28 29 30 31 32 33 34 35 36 37 38 39 40 41 42 43 44 45 46 47 48 49 50
000
ASUS43 KMPX 292110
RWRMN
WEATHER ROUNDUP FOR MINNESOTA
NATIONAL WEATHER SERVICE TWIN CITIES/CHANHASSEN MN
400 PM CDT SAT AUG 29 2015


NOTE: "FAIR" INDICATES FEW OR NO CLOUDS BELOW 12,000 FEET WITH NO
SIGNIFICANT WEATHER AND/OR OBSTRUCTIONS TO VISIBILITY. N/A MEANS
CURRENT SKY AND/OR WEATHER CONDITIONS ARE NOT AVAILABLE.

MNZ060>063-068>070-292200-
   Twin Cities Metro

CITY           SKY/WX    TMP DP  RH WIND       PRES   REMARKS
TWIN CITIES    PTSUNNY   73  61  65 SE3       30.03F
ST PAUL        FAIR      71  62  73 SE5       30.04F
CRYSTAL        FAIR      74  60  61 S8        30.02F
BLAINE         PTSUNNY   75  63  64 S5        30.03F
LAKEVILLE      FAIR      72  63  73 CALM      30.05S
EDEN PRAIRIE   FAIR      72  62  71 S6        30.02F
SOUTH ST PAUL  FAIR      72  61  68 CALM      30.03F
LAKE ELMO      FAIR      72  63  73 S5        30.05S
$$
MNZ001>005-007-008-013>017-022>024-027-028-292200-
   Northwest Minnesota

CITY           SKY/WX    TMP DP  RH WIND       PRES   REMARKS
BEMIDJI        FAIR      76  67  71 S9        29.96S
HALLOCK        FAIR      75  70  83 S14       29.85F
ROSEAU         FAIR      75  68  78 SE8       29.90F
WARROAD        PTSUNNY   72  66  83 S8        29.91F
THIEF RVR FALL FAIR     N/A N/A N/A S12       29.90F
CROOKSTON      FAIR      81  68  65 S14       29.89F
FOSSTON        FAIR      79  64  61 S13       29.94S
DETROIT LAKES  FAIR      77  64  65 S10       29.97S
MOORHEAD       FAIR      81  66  61 S12G17    29.92S
PARK RAPIDS    FAIR      76  64  66 S9        29.98S
MAHNOMEN       FAIR      76  66  70 S9        29.94S
$$
MNZ006-009>011-018-025>026-292200-
   North Central Minnesota

CITY           SKY/WX    TMP DP  RH WIND       PRES   REMARKS
BAUDETTE       CLOUDY    72  65  78 S8        29.93F
FLAG ISLAND    CLOUDY    70  66  88 S12       29.89F
INTL FALLS     CLOUDY    71  65  81 VRB6      29.95F
WASKISH        FAIR      75  68  78 SE5       29.94F
BIG FORK       FAIR      75  64  69 S5        29.97F
LONGVILLE      FAIR      73  64  73 S9        29.98F
GRAND RAPIDS     N/A     73  63  68 S13       29.99F
CRANE LAKE     CLOUDY    70  64  83 SE2       29.99S
ORR            CLOUDY    72  61  68 S5        29.96F
COOK           CLOUDY    72  63  73 SW7       30.00S
WALKER         FAIR      73  65  74 S6        29.97F
$$
MNZ012-019>021-037-292200-
   Northeast Minnesota

CITY           SKY/WX    TMP DP  RH WIND       PRES   REMARKS
DULUTH         CLOUDY    73  60  63 SW10      30.01F
ELY            PTSUNNY   73  64  73 SW5       29.99F
HIBBING        CLOUDY    72  62  71 VRB3      29.99F
EVELETH        PTSUNNY   72  63  73 SW7       30.01F
DULUTH HARBOR  PTSUNNY   73  64  73 CALM      29.99F
TWO HARBORS    FAIR      75  64  69 SW10      29.98F
SILVER BAY     FAIR      77  64  65 S8        29.97S
GRAND MARAIS     N/A     55  51  86 SW9       29.97F
G MARAIS ARPRT PTSUNNY   72  61  68 CALM      30.01F
$$
MNZ029>031-032-039>041-046>048-054>057-064-292200-
   West Central Minnesota

CITY           SKY/WX    TMP DP  RH WIND       PRES   REMARKS
FERGUS FALLS   FAIR      75  64  69 S10       29.95S
WHEATON        FAIR      77  68  73 S8        29.96S
MORRIS         FAIR      77  64  65 S13       29.97F
ALEXANDRIA     FAIR      73  61  65 S13       30.01F
ELBOW LAKE     FAIR      74  64  69 S12       29.97F
WADENA         FAIR      75  63  64 S12       29.98F
GLENWOOD       FAIR      73  63  68 S8        30.01F
APPLETON       FAIR      79  63  57 S9        29.98S
BENSON         FAIR      77  63  61 S9        29.99F
ORTONVILLE     FAIR      79  64  61 SE9       29.97S
MADISON        FAIR      79  64  61 S8        29.98F
WILLMAR        FAIR      75  64  69 S5        30.03F
$$
MNZ033>034-036-042>043-049>051-058-059-292200-
   Central Minnesota

CITY           SKY/WX    TMP DP  RH WIND       PRES   REMARKS
ST CLOUD       FAIR      73  62  68 S9        30.02F
SAUK CENTRE    FAIR      74  62  65 S9        30.01F
PAYNESVILLE    FAIR      73  60  63 SE8       30.03F
AITKIN         FAIR      73  63  68 S8        30.00S
PINE RIVER     FAIR      73  64  73 SE7       30.02S
BRAINERD       FAIR      74  62  66 S9        30.00F
STAPLES        FAIR      73  61  64 S9        29.99F
LONG PRAIRIE   FAIR      72  61  68 SE8       30.01F
LITTLE FALLS   FAIR      73  59  60 S7        30.01F
LITCHFIELD     FAIR      73  66  78 S5        30.04S
BUFFALO        FAIR      70  60  71 SE5       30.05R
MAPLE LAKE     FAIR      72  65  78 S5        30.05S
$$
MNZ037-044-045-052-053-292200-
   East Central Minnesota

CITY           SKY/WX    TMP DP  RH WIND       PRES   REMARKS
PRINCETON      FAIR      75  63  64 S6        30.02F
MORA           FAIR      73  61  64 S6        30.04F
CAMBRIDGE      FAIR      75  61  60 SE5       30.01F
RUSH CITY      FAIR      74  62  66 S5        30.03F
MOOSE LAKE     FAIR      73  61  64 S5        30.00F
HINCKLEY       FAIR      73  63  68 S6        30.03S
CLOQUET        CLOUDY    72  61  68 S6        30.02F
MCGREGOR       FAIR      73  63  68 SW7       30.01F
$$
MNZ071>073-080-081-089-090-097-098-292200-
   Southwest Minnesota

CITY           SKY/WX    TMP DP  RH WIND       PRES   REMARKS
MONTEVIDEO     FAIR      79  66  65 SW7       30.02S
GRANITE FALLS  FAIR      75  64  69 SE7       30.01F
CANBY          FAIR      77  63  61 S8        30.00S
MARSHALL       FAIR      77  61  57 S9        30.02F
REDWOOD FALLS  FAIR      74  63  68 SE9       30.02F
OLIVIA         FAIR      72  61  68 S7        30.02S
PIPESTONE      FAIR      73  64  73 S8        30.04S
WINDOM         FAIR      73  64  73 S7        30.04F
WORTHINGTON    FAIR      72  63  73 S7        30.04F
JACKSON        FAIR      72  64  78 SW6       30.06F
TRACY          FAIR      77  65  66 S6        30.02F
SLAYTON        FAIR      74  64  69 CALM      30.05S
$$
MNZ065>067-074>077-082>085-091>093-292200-
   South Central Minnesota

CITY           SKY/WX    TMP DP  RH WIND       PRES   REMARKS
MANKATO        FAIR      66  61  82 SE6       30.05F
NEW ULM        FAIR      70  64  83 SE7       30.04S
ST JAMES       FAIR      73  66  78 S3        30.05F
FAIRMONT       PTSUNNY   68  59  73 S5        30.05F
GLENCOE        FAIR      71  64  79 S5        30.04S
FARIBAULT      FAIR      73  64  73 CALM      30.05S
OWATONNA       FAIR      75  63  64 CALM      30.05S
WASECA         FAIR      72  64  78 CALM      30.06S
ALBERT LEA     FAIR      73  63  68 CALM      30.05S
$$
MNZ078>079-086>088-094>096-292200-
   Southeast Minnesota

CITY           SKY/WX    TMP DP  RH WIND       PRES   REMARKS
ROCHESTER      FAIR      75  64  68 VRB3      30.05F
RED WING       FAIR      73  63  68 S6        30.02F
STANTON        FAIR      74  63  67 CALM      30.02F
DODGE CENTER   FAIR      73  63  68 CALM      30.05F
WINONA         CLOUDY    70  61  73 CALM      30.05S
AUSTIN         FAIR      75  64  69 SE3       30.04S
PRESTON        FAIR      70  60  71 CALM      30.06F
$$
ABBREVIATIONS USED IN REMARKS
   TC - TEMPERATURES IN CELSIUS
  WCI - WIND CHILL INDEX
   HX - HEAT INDEX
  VSB - VISIBILITY
$$


USA.gov is the U.S. government's official web portal to all federal, state and local government web resources and services.